sat.trackr.live / text

‹ back to catalog

STARLINK-32012

NORAD 60027 · 2024-111M

PAYLOAD ACTIVE UNKNOWN

§ Identity

Operator
Country
US
Launch date
2024-06-08
Launch site
AFETR
Launch vehicle
Mass (kg)
RCS (m²)

Purposes: comms

External: N2YO · Heavens-Above · Gunter

§ Orbital elements

Epoch: 2026-05-25T02:17:12.329376Z

Period
94.11 min
Inclination
53.1603°
Eccentricity
0.0001298
Mean motion
15.30194347 rev/d
Perigee alt
474.3 km
Apogee alt
476.1 km
Semi-major
6,853.4 km
B*
2.2347e-5
RAAN
80.5733°
Arg perigee
82.4529°
Mean anomaly
277.6619°
Rev number
11,073

§ Raw data

STARLINK-320121 60027U 24111M   26145.09528159  .00000303  00000+0  22347-4 0  99982 60027  53.1603  80.5733 0001298  82.4529 277.6619 15.30194347110738

JSON: /api/v1/satellites/60027 · /tle

For live sub-satellite position, see the globe view (requires WebGL).

§ Visibility from observer

Set your observer location to see the next 7 days of passes ≥ 10°. The values pass through the URL so the page stays shareable.

No JS? Fill the form by hand. The geolocation button needs JavaScript.